Curium One
1 60242U 24128H   26239.74606719  .00007601  00000-0  43083-3 0  9998
2 60242  61.9798 312.1470 0029456 145.8080 214.4921 15.13439702117283
ROBUSTA-3A
1 60243U 24128J   26239.75227612  .00007552  00000-0  43819-3 0  9993
2 60243  61.9875 315.0005 0031385 142.9416 217.3856 15.12556357117241
CatSat
1 60246U 24125J   26237.08672416  .00099802  00000-0  89563-3 0  9998
2 60246  97.2010  90.9174 0014495 281.2037  78.7595 15.67838486118158
HYPERVIEW-1G (RS66S)
1 61772U 24199AP  26230.11543498  .07890463  24672-5  93922-3 0  9997
2 61772  97.2456 114.2453 0006603 245.8477 114.2131 16.36574258144515
AO-123
1 61781U 24199AY  26239.81915402  .00008123  00000-0  22868-3 0  9993
2 61781  97.2887 107.8503 0015039  56.1020 304.1653 15.36610915144921
LASARsat
1 62391U 24247Q   26239.00061145  .00036753  00000-0  62768-3 0  9995
2 62391  44.9711 222.9854 0007545  67.9259 292.2433 15.50706273 94295
CroCube
1 62394U 24247T   26237.03134957  .00043022  00000-0  67126-3 0  9991
2 62394  44.9685 230.1372 0007916  62.8834 297.2865 15.53158446 94031
JINJUSat 1B
1 63210U 25052A   26239.22236493  .00017328  00000-0  50319-3 0  9991
2 63210  97.3904 136.1416 0003514 150.3420 209.8024 15.35550183 80993
NUSHSAT 1
1 63211U 25052B   26239.46439610  .00024441  00000-0  64224-3 0  9998
2 63211  97.3876 137.2240 0003181 147.2469 212.8974 15.38592333 81093
TEVEL2-4
1 63213U 25052D   26239.46148852  .00021575  00000-0  59845-3 0  9993
2 63213  97.3801 136.0531 0002345 153.1170 207.0196 15.36943363 81058
TEVEL2-5
1 63214U 25052E   26238.25367084  .00016369  00000-0  45866-3 0  9993
2 63214  97.3800 134.7670 0001994 157.2511 202.8822 15.36686092 80860
TEVEL2-6
1 63215U 25052F   26239.43972244  .00020833  00000-0  58259-3 0  9996
2 63215  97.3805 135.9421 0002084 154.2215 205.9134 15.36696664 81049
TEVEL2-1
1 63217U 25052H   26239.69089859  .00018818  00000-0  53703-3 0  9996
2 63217  97.3772 135.7285 0001680 171.8412 188.2859 15.36084220 81063
TEVEL2-3
1 63218U 25052J   26239.22656975  .00018826  00000-0  53626-3 0  9998
2 63218  97.3780 135.2953 0001444 163.7472 196.3819 15.36142238 80995
TEVEL2-2
1 63219U 25052K   26239.49524961  .00017836  00000-0  50910-3 0  9990
2 63219  97.3775 135.5360 0001566 172.5581 187.5686 15.36089674 81033
TEVEL2-9
1 63237U 25052AD  26239.43842088  .00018368  00000-0  56127-3 0  9994
2 63237  97.3836 134.6904 0003933 236.5648 123.5219 15.33926307 80941
TEVEL2-7
1 63238U 25052AE  26239.68999767  .00016178  00000-0  50017-3 0  9998
2 63238  97.3837 134.8251 0003945 235.4150 124.6720 15.33581432 80977
TEVEL2-8
1 63239U 25052AF  26239.69888193  .00016975  00000-0  52480-3 0  9991
2 63239  97.3839 134.8089 0003931 237.1850 122.9014 15.33572284 80972
SPIRONE
1 66657U 25274H   26239.59975584  .00001851  00000-0  17971-3 0  9997
2 66657  97.7469 167.8785 0013100 131.3559 228.8790 14.93789458 40882
K-HERO
1 66660U 25274L   26239.51797057  .00001467  00000-0  14203-3 0  9998
2 66660  97.7479 168.0108 0014845 136.0345 224.2059 14.94187189 40883
SNUGLITE-III DURI
1 66661U 25274M   26239.37058172  .00001474  00000-0  14260-3 0  9992
2 66661  97.7475 167.8861 0015447 137.6041 222.6376 14.94200102 40865
SAKHACUBE-CHOLBON
1 67290U 25313AU  26239.46248591  .00010431  00000-0  40715-3 0  9998
2 67290  97.3890 313.6448 0010697 103.7746 256.4684 15.26042118 36848
RS95S (QMR-KWT-2)
1 67291U 25313AV  26239.43832113  .00015230  00000-0  55931-3 0  9993
2 67291  97.3889 313.9729 0010176 102.2169 258.0211 15.27974962 36865
Ten-Koh2
1 68261U 25241B   26239.67593553  .00007592  00000-0  31592-3 0  9998
2 68261  51.6658 339.1786 0006969  19.2273 340.8967 15.24695328 25815
JACK-002
1 68417U 26067B   26239.40092988  .00006784  00000-0  31652-3 0  9994
2 68417  97.4629 197.1750 0003499  59.2725 300.8854 15.20165856 22764
DISCO 2
1 68431U 26067R   26239.82768501  .00008667  00000-0  40500-3 0  9991
2 68431  97.4663 197.5932 0004165  96.7351 263.4358 15.20029730 22826
HADES-SA (SpinnyONE)
1 68446U 26067AG  26239.70514352  .00020158  00000-0  90266-3 0  9990
2 68446  97.4454 197.0674 0006708 163.6796 196.4656 15.21276348 22792
PARUS-6U1
1 68456U 26067AS  26239.45265981  .00005625  00000-0  27848-3 0  9992
2 68456  97.4615 196.7779 0005931 157.2212 202.9286 15.18170020 22746
SAL-E
1 68458U 26067AU  26239.62838917  .00008393  00000-0  40793-3 0  9997
2 68458  97.4541 196.8562 0005847 164.9019 195.2391 15.18664571 22776
FSI-SAT 2
1 68792U 26088A   26239.85952784  .00003830  00000-0  25724-3 0  9993
2 68792  97.5164  27.3847 0013245 217.1186 142.9127 15.07319172 19088
OrigamiSat 2
1 68795U 26088D   26239.35843520  .00014189  00000-0  87035-3 0  9990
2 68795  97.5155  27.2849 0014676 190.0228 170.0711 15.10152538 19038
ARICA 2
1 68796U 26088E   26239.85877700  .00004001  00000-0  25702-3 0  9998
2 68796  97.5156  27.6760 0015259 187.0544 173.0473 15.08917217 19107
WASEDA-SAT-ZERO-II
1 68797U 26088F   26239.64046161  .00006830  00000-0  43086-3 0  9992
2 68797  97.5146  27.5019 0015104 188.2659 171.8323 15.09330793 19077
MANGARO-II-Piscus
1 68798U 26088G   26239.36517418  .00004801  00000-0  30472-3 0  9991
2 68798  97.5159  27.2728 0018577 193.1075 166.9674 15.09214466 19038
CO-128
1 69912U 26156AV  26239.55255953  .00001556  00000-0  16341-3 0  9993
2 69912  97.7499 139.0966 0002407   8.3294 351.7964 14.90903282  7636
MARINA
1 69920U 26156BD  26239.71359204  .00002064  00000-0  20856-3 0  9995
2 69920  97.7465 139.3276 0007374 357.0178   3.0995 14.92104194  7669
IO-86
1 40931U          26199.45381863  .00000000  00000-0  77536-4 0    07
2 40931   6.0006 322.6653 0012733 338.8432 273.6875 14.79294310    03
LILIUM-4
1 71922C 26067AC  26089.50133053 -.00014632  00000+0 -74472-3 0    04
2 71922  97.4497  49.1617 0004341   5.9603 355.7042 15.16896692    16
